RH
53 54 53 55 59 60 64 66 71 70 73 78 81 81 79 74 72 70 65 63 62 62 70 76 73 75 81 67 74 80 83 84 79 94 93 82 75 73 73 72 75 73 66
57 54 55 54 58 62 62 66 68 69 74 78 78 76 77 78 73 71 75 70 68 68 66 73 74 73 79 75 81 85 86 85 82 93 92 91 89 91 80 80 72 75 68
60 55 53 58 58 64 63 63 66 68 71 74 77 76 74 74 77 76 76 72 69 72 73 76 76 76 76 85 88 87 84 89 86 83 88 93 92 90 91 85 85 79 83
52 52 53 56 56 59 58 60 62 65 65 69 78 82 86 87 80 79 75 74 74 76 73 74 76 77 80 80 86 86 90 87 90 88 79 81 76 88 90 88 89 83 77
50 53 54 50 54 54 60 59 62 63 65 68 72 82 85 84 81 78 76 74 73 73 72 76 76 75 81 82 83 86 93 92 90 87 86 84 79 79 83 87 91 87 81
48 48 47 47 52 52 55 58 62 66 63 67 70 76 81 84 84 84 84 79 76 76 73 73 77 79 76 78 82 84 85 94 94 92 85 82 82 78 83 85 80 91 86
48 48 48 48 47 47 52 51 60 64 64 66 71 74 77 78 82 87 88 85 84 80 75 75 78 79 81 79 72 78 85 87 90 94 94 86 79 76 82 76 77 78 80
44 45 43 44 44 44 46 51 55 61 60 64 71 71 72 76 77 78 81 83 84 86 76 75 74 73 75 84 79 75 80 82 82 87 92 90 84 77 75 79 82 85 84
43 43 40 39 42 47 49 52 54 57 60 62 66 70 72 74 79 76 73 76 77 72 76 77 78 76 75 78 90 77 75 74 82 90 77 88 93 84 80 76 81 86 90
44 42 41 42 43 47 52 55 57 61 65 66 66 70 72 74 74 74 77 75 74 74 78 80 82 84 84 83 88 94 81 78 75 72 89 89 79 91 89 85 78 86 91
53 50 48 48 51 55 58 62 65 68 70 71 71 75 78 77 78 78 79 79 78 77 78 79 80 85 90 89 91 95 94 95 91 79 73 79 87 81 83 93 82 73 79
60 60 61 64 68 71 72 77 76 79 77 77 78 81 80 82 84 81 83 80 83 82 82 82 83 84 84 88 91 91 95 98 98 97 91 81 65 75 76 72 80 89 73
75 80 82 88 91 92 90 91 88 89 85 84 86 84 85 91 90 83 86 82 84 85 83 86 87 87 88 88 91 91 88 90 96 98 98 98 92 86 76 75 78 80 76
90 89 92 94 95 96 96 96 94 93 92 90 91 90 89 93 91 87 90 86 86 87 85 87 90 88 89 90 92 93 94 88 88 93 97 98 98 99 97 88 81 72 82
91 90 92 94 95 96 96 96 94 95 95 94 95 92 91 92 90 87 90 90 90 86 87 90 90 91 88 88 82 93 95 95 91 91 95 96 98 98 97 96 97 91 90
91 89 89 91 93 95 93 92 91 91 93 95 94 92 91 94 88 88 88 87 86 86 87 88 89 89 86 66 66 68 95 95 93 93 91 94 92 98 98 98 97 97 99
94 91 93 94 95 94 94 93 93 92 92 93 89 88 89 85 86 86 85 85 84 84 86 85 85 83 87 62 64 63 77 95 92 92 93 93 88 92 97 97 98 98 98
93 93 96 96 94 93 96 93 93 92 92 88 87 87 75 72 70 68 67 71 69 75 75 73 72 82 76 62 63 63 74 78 85 90 90 93 93 91 94 98 98 98 99
94 94 93 93 93 96 90 93 94 92 87 85 86 78 67 60 60 58 59 58 59 59 56 50 58 64 64 58 60 62 68 64 74 74 76 86 92 86 82 97 97 96 97
91 92 88 90 93 86 89 93 88 84 81 73 62 44 46 48 50 50 51 49 51 45 42 46 48 56 52 57 59 57 53 58 51 52 51 55 59 63 82 97 98 97 94
86 84 89 86 86 84 85 76 72 63 47 35 36 37 37 37 37 39 40 41 43 43 50 45 49 50 50 51 59 58 46 48 50 52 54 50 59 60 60 77 97 95 96
82 80 83 80 74 69 64 62 50 37 36 36 36 37 36 32 28 34 38 40 45 48 53 55 52 45 43 54 55 60 59 57 52 58 52 53 58 59 59 58 65 86 89
67 62 70 63 58 55 54 41 37 36 37 39 39 38 35 32 33 38 42 42 50 60 61 56 56 53 41 42 62 64 62 60 52 49 54 59 59 58 56 60 65 66 78
62 60 65 62 56 48 33 39 37 35 39 42 42 41 44 48 49 41 42 50 59 65 64 64 65 71 70 59 52 46 50 63 64 68 69 68 68 76 62 56 51 52 63
57 56 54 50 48 40 40 41 35 39 41 42 47 52 47 54 56 54 56 57 59 65 70 88 88 91 88 68 64 69 74 77 70 72 85 84 77 77 70 76 63 57 57
53 50 49 43 42 42 42 41 41 40 45 50 50 56 60 64 63 68 71 70 69 69 68 68 66 68 70 68 67 69 66 63 64 72 91 89 84 87 71 76 73 79 63
Wind_Speed
15 14 16 16 17 18 20 20 20 21 16 13 12 7 7 8 5 4 7 7 6 3 2 3 2 1 3 4 3 1 3 3 4 3 2 3 3 4 3 3 3 3 3
13 14 16 17 18 17 18 20 20 19 16 11 10 5 8 7 10 12 7 6 7 6 5 5 4 1 2 4 3 2 2 2 3 3 1 2 3 3 5 4 4 6 3
14 14 15 16 15 16 17 17 18 18 17 19 12 10 9 8 10 14 12 13 6 7 6 7 6 5 3 2 3 4 4 3 3 5 3 0 4 1 1 5 4 4 3
13 14 14 16 17 16 14 15 16 17 17 19 15 16 11 9 8 9 10 12 17 19 17 12 7 6 4 5 2 4 4 4 4 2 4 3 4 1 3 2 4 4 4
13 14 14 15 14 15 14 15 15 16 17 17 17 12 13 9 8 10 14 15 14 16 18 17 16 12 5 6 6 3 4 4 3 3 2 4 3 3 3 3 3 2 3
12 13 13 13 12 13 14 14 16 17 16 15 16 17 16 15 13 14 12 12 11 11 15 16 14 13 14 9 5 6 5 5 5 4 5 4 4 6 3 4 4 5 4
11 12 13 13 14 15 15 14 16 16 17 16 15 15 14 14 14 13 10 13 11 11 15 16 14 11 13 13 13 5 6 6 3 4 5 5 5 3 4 5 4 4 3
10 11 12 12 13 15 15 14 15 15 16 16 15 14 14 9 8 11 10 8 9 9 13 13 13 14 14 12 11 10 5 6 6 7 5 4 4 4 4 4 4 2 3
10 11 11 12 13 13 14 15 15 15 15 15 13 13 13 13 12 12 11 8 10 11 13 13 13 14 14 13 13 8 11 10 6 6 8 6 4 4 4 4 4 5 4
10 10 10 11 11 12 12 13 14 14 14 13 12 11 12 11 11 11 12 13 12 13 13 13 13 13 13 13 13 10 11 11 11 8 6 7 7 6 4 4 4 4 5
7 8 9 9 10 10 11 11 12 13 13 12 12 12 10 11 10 10 11 11 11 12 13 13 13 13 12 12 11 12 11 11 11 11 13 9 6 8 6 4 4 8 6
7 7 7 7 7 8 9 9 10 10 10 10 10 10 11 10 9 11 11 11 11 10 11 12 12 12 13 12 11 12 10 11 11 10 11 11 12 8 7 9 10 7 9
6 6 6 5 5 5 7 7 8 9 9 10 10 10 10 8 8 11 11 11 11 10 11 10 11 12 12 12 11 11 12 11 10 10 10 9 11 10 10 8 7 9 9
4 4 4 4 4 4 4 5 6 6 7 8 8 9 10 8 7 9 9 10 10 10 10 9 9 10 11 11 10 11 10 10 9 10 10 9 8 8 9 8 9 6 5
5 5 6 4 4 4 5 5 4 5 5 6 6 7 7 7 7 9 7 7 6 8 8 8 7 7 8 8 12 10 9 8 11 10 9 8 14 17 13 7 6 7 5
5 7 7 7 7 6 7 7 7 7 6 6 6 7 7 5 7 7 8 8 8 7 7 7 7 7 7 20 21 17 9 6 9 10 11 8 12 12 18 17 15 12 6
5 7 7 7 7 7 7 9 8 8 8 7 7 7 5 6 6 6 6 7 7 8 8 8 7 9 6 21 21 22 8 5 8 10 10 9 8 11 8 14 16 13 15
5 6 6 6 7 6 6 7 7 7 7 7 7 6 8 9 9 9 10 8 8 8 8 9 10 7 8 23 23 24 9 9 8 9 9 10 10 10 12 10 9 8 7
6 6 7 7 7 6 7 7 7 7 7 7 7 6 7 10 10 11 11 11 11 10 10 11 10 10 9 22 25 21 10 11 9 9 9 10 11 15 20 12 10 8 8
6 5 7 6 4 8 7 5 7 6 7 7 6 9 10 10 11 11 11 10 10 12 11 12 12 16 13 19 24 20 9 10 10 10 11 18 17 19 18 12 9 8 7
6 7 5 6 7 6 5 7 6 7 8 8 10 10 10 11 11 10 9 11 11 11 10 13 11 11 13 12 24 24 12 9 9 9 9 8 21 24 24 18 9 10 9
6 6 5 6 6 6 7 8 8 9 7 8 10 10 10 9 10 12 11 12 9 10 10 10 10 9 10 19 20 25 25 23 12 11 9 9 22 25 26 22 21 19 17
8 7 6 8 7 8 7 9 8 8 8 8 10 9 10 10 11 12 11 9 8 7 8 9 10 10 9 9 22 25 26 24 15 11 16 27 26 25 20 23 24 23 8
9 7 7 9 11 8 9 8 9 9 8 10 10 9 9 11 9 7 8 8 8 8 9 10 10 10 10 10 9 11 11 18 16 18 14 19 24 26 21 16 13 9 8
10 9 10 11 12 10 10 8 10 9 10 10 9 9 9 9 9 8 8 8 10 12 11 9 9 10 10 10 22 20 12 11 15 21 11 10 10 10 9 9 10 9 8
11 11 10 12 13 11 11 12 10 10 10 10 9 8 9 8 8 8 9 17 23 25 26 27 21 11 22 27 28 28 28 27 28 13 11 10 10 10 9 9 9 8 11
Wind_Direction
40 33 33 27 25 23 20 17 14 9 9 4 356 355 349 353 6 18 26 14 357 37 350 331 345 31 318 213 254 35 115 67 100 91 335 247 219 225 225 227 233 216 170
35 33 31 27 27 20 21 20 17 14 13 5 354 331 317 7 18 1 8 16 8 8 3 350 338 278 296 315 152 104 109 87 153 151 208 281 331 264 217 211 225 205 168
36 32 31 31 27 24 20 20 18 16 16 10 6 1 8 2 12 2 356 349 25 8 11 354 346 341 335 305 183 165 166 164 193 217 190 5 234 248 161 228 221 220 188
42 35 32 32 26 23 20 24 24 21 19 18 21 26 26 16 357 343 344 357 16 9 12 359 352 337 333 321 258 188 178 156 190 240 245 224 156 360 336 300 227 215 213
44 36 32 31 27 24 19 18 23 25 25 25 24 22 25 13 360 1 5 3 7 8 9 360 358 347 342 329 321 316 212 197 177 192 190 221 203 172 173 285 287 278 220
40 38 32 29 28 25 21 19 21 21 20 24 27 25 20 11 12 9 9 3 2 359 6 357 355 350 348 330 319 312 293 215 215 210 228 193 188 211 185 232 249 211 235
40 35 29 26 25 24 21 17 18 20 15 18 21 25 21 17 15 10 4 1 358 358 357 354 352 348 343 342 332 307 303 292 229 226 232 235 229 190 190 212 251 218 232
39 36 32 26 21 21 20 18 17 17 15 12 14 14 16 17 15 11 3 358 355 349 350 347 346 347 346 347 343 336 292 283 275 254 249 251 242 207 199 189 177 280 246
39 33 31 27 21 18 17 14 12 13 12 8 5 11 12 10 7 7 4 359 353 348 348 346 346 347 349 349 347 338 341 316 272 271 247 242 245 249 213 211 180 167 228
38 29 25 26 22 17 11 10 9 10 3 3 2 1 2 4 2 360 359 356 351 350 347 346 345 346 349 350 350 348 338 346 343 309 256 250 239 238 240 212 216 193 187
38 26 18 20 19 13 8 4 2 3 358 357 354 352 354 356 357 354 349 347 344 346 346 346 343 343 344 346 346 346 349 341 337 335 346 297 255 243 238 230 232 224 203
40 26 14 10 9 3 359 354 353 353 350 345 347 344 340 350 351 345 340 341 339 340 336 339 340 341 340 337 338 342 341 342 338 333 332 332 343 289 262 239 236 235 230
25 9 1 356 355 350 348 342 343 341 340 340 340 338 337 339 342 337 330 335 331 332 333 332 333 334 333 331 329 330 338 341 337 334 327 322 327 340 342 306 256 235 241
53 352 337 323 321 324 319 316 322 322 324 329 329 328 328 323 329 323 318 324 324 323 324 321 320 325 322 317 315 322 331 334 336 334 333 326 319 310 318 325 339 305 244
11 343 330 317 309 321 308 312 311 313 306 316 316 307 306 308 320 317 309 303 306 312 305 305 305 305 317 316 314 318 328 329 328 323 326 330 327 320 306 293 296 310 333
333 322 324 326 328 328 320 331 324 321 321 310 300 294 298 303 303 302 305 311 309 308 305 303 300 305 306 315 318 321 322 332 320 316 314 313 320 322 329 312 301 286 264
310 321 318 317 316 313 313 321 309 307 307 301 303 300 297 306 296 294 302 304 306 305 304 306 308 300 288 316 319 318 317 307 304 301 300 307 303 315 311 311 306 298 290
293 297 290 292 284 282 291 289 293 296 294 298 294 297 315 315 317 319 319 315 310 306 307 306 297 298 306 319 316 316 320 304 286 283 288 286 290 294 292 290 290 285 269
261 256 258 262 269 276 279 277 283 278 289 287 284 298 312 314 317 318 318 315 315 318 311 309 313 310 305 316 315 313 305 299 295 292 287 279 269 283 295 290 286 278 282
259 268 268 266 284 279 270 269 277 284 288 288 305 319 312 313 312 310 307 313 312 310 307 316 316 313 311 308 308 309 299 299 297 298 291 295 295 283 288 294 289 281 277
280 270 274 269 265 273 276 287 284 288 290 313 312 309 310 309 303 305 312 308 304 307 318 308 306 307 301 310 312 306 300 295 291 289 293 298 304 300 295 285 272 286 290
276 275 276 271 274 279 283 280 285 292 303 302 301 300 301 302 304 306 305 298 309 305 305 312 307 309 309 307 312 309 307 303 301 296 293 293 294 288 288 291 285 280 273
299 295 281 289 286 281 263 287 293 297 292 294 293 292 294 297 299 294 296 307 302 300 301 302 299 298 298 300 305 308 309 305 305 299 294 300 303 299 299 299 291 291 288
299 295 295 291 289 276 295 283 287 293 288 286 287 290 290 289 289 298 291 295 293 291 286 286 285 284 288 295 298 291 290 291 295 297 292 287 288 289 286 286 285 281 276
293 289 285 284 289 299 288 283 294 290 284 284 285 287 288 284 285 285 285 279 273 273 277 278 287 292 294 291 289 298 295 290 283 290 292 291 294 294 285 279 268 261 260
283 280 287 293 287 287 287 287 284 281 279 282 283 280 286 289 285 286 287 282 291 297 297 297 296 291 295 304 302 302 302 298 294 286 282 283 285 275 278 284 276 261 261